Regional Weather Roundup
Issued by NWS

Home | Current Version | Previous Version | Graphics & Text | Print | Product List | Glossary Off
Versions: 1 2 3 4 5 6 7 8 9 10 11 12 13 14 15 16 17 18 19 20 21 22 23 24 25 26 27 28 29 30 31 32 33 34 35 36 37 38 39 40 41 42 43 44 45 46 47 48 49 50

000
ASUS43 KDMX 231201
RWRIA

WEATHER ROUNDUP FOR IOWA
NATIONAL WEATHER SERVICE DES MOINES IA
700 AM CDT WED AUG 23 2017

NOTE: "FAIR" INDICATES FEW OR NO CLOUDS BELOW 12,000 FEET WITH NO
SIGNIFICANT WEATHER AND/OR OBSTRUCTIONS TO VISIBILITY.

* - THESE STATIONS ARE NOT NWS STATIONS...THUS NOT UNDER NWS
QUALITY CONTROL.  THEY ALSO DO NOT REPORT WEATHER SUCH
AS PRECIPITATION OR FOG.

IAZ001>003-012>014-020>022-031>034-043>046-231300-
   NORTHWEST IOWA

CITY           SKY/WX    TMP DP  RH WIND       PRES   REMARKS
CARROLL *      CLEAR     50  50 100 CALM      30.15R
CHEROKEE *     PTCLDY    48  48 100 CALM      30.16S
DENISON *      CLEAR     50  50 100 MISG      30.18R
LE MARS *      PTCLDY   106 N/A N/A CALM      30.16R
ORANGE CITY *  CLEAR     54  52  94 CALM      30.16R
SHELDON *      CLEAR     45  45 100 CALM      30.14S
SIOUX CITY     PTCLDY    52  52 100 SE5       30.16R
6HR MIN TEMP:  52; 6HR MAX TEMP:  57;

SPENCER        CLEAR     48  47  96 W5        30.16R
6HR MIN TEMP:  46; 6HR MAX TEMP:  51;

STORM LAKE *   CLEAR     55  50  82 W8        30.16R
$$

IAZ055>058-069>071-079>083-090>094-231300-
   SOUTHWEST IOWA

CITY           SKY/WX    TMP DP  RH WIND       PRES   REMARKS
ATLANTIC *     CLEAR     50  50 100 CALM      30.16S
AUDUBON *      CLEAR     48  46  93 CALM      30.17S
CLARINDA *     FOG       48  48 100 CALM      30.18S VSB 1/4
COUNCIL BLFS * CLEAR     55  55 100 CALM      30.16S
CRESTON *      CLEAR     52  52 100 NW5       30.17R
HARLAN  *      CLEAR     48  48 100 CALM      30.20R
LAMONI         CLEAR     53  50  89 NW5       30.15S
6HR MIN TEMP:  53; 6HR MAX TEMP:  56;

RED OAK *      CLEAR     50  50 100 CALM      30.16S
SHENANDOAH *   CLEAR     50  50 100 CALM      30.17S
$$

IAZ047>049-059>061-072>074-084-231300-
   CENTRAL IOWA

CITY           SKY/WX    TMP DP  RH WIND       PRES   REMARKS
AMES           CLEAR     50  50 100 W3        30.14R
6HR MIN TEMP:  49; 6HR MAX TEMP:  53;

ANKENY *       CLEAR     52  50  93 CALM      30.15R
BOONE *        CLEAR     54  50  87 W5        30.14R
CHARITON *     CLEAR     54  52  94 W7        30.14R
DES MOINES     PTCLDY    55  53  93 CALM      30.14R
6HR MIN TEMP:  55; 6HR MAX TEMP:  60;

GRINNELL*      CLEAR     50  49  95 CALM      30.14R
KNOXVILLE *    CLEAR     52  50  93 CALM      30.12S
MARSHALLTOWN     N/A     48  48 100 W3        30.13R
6HR MIN TEMP:  48; 6HR MAX TEMP:  53;

NEWTON *       CLEAR     52  50  93 W5        30.14R
PELLA *        CLEAR     53  52  96 NW3       30.14S
PERRY *          N/A     50  50  98 W3        30.16R
$$

IAZ004>006-015-016-023>025-035-036-231300-
   NORTH CENTRAL IOWA

CITY           SKY/WX    TMP DP  RH WIND       PRES   REMARKS
ALGONA *       CLEAR     52  52 100 W6        30.15R
CLARION *      CLEAR     46  46 100 S3        30.14R
ESTHERVILLE    CLEAR     49  49 100 W5        30.14R
6HR MIN TEMP:  49; 6HR MAX TEMP:  53;

FORT DODGE *   CLEAR     48  46  93 CALM      30.15S
MASON CITY     CLEAR     50  47  89 W8        30.14R
6HR MIN TEMP:  49; 6HR MAX TEMP:  53;

FOREST CITY *    N/A     46  46 100 CALM      30.13S
WEBSTER CITY * CLEAR     50  48  93 CALM      30.12S
IOWA FALLS *     N/A     50  48  93 CALM      30.15R
$$

IAZ007>011-017>019-026>030-037>042-050>054-066-231300-
   NORTHEAST IOWA

CITY           SKY/WX    TMP DP  RH WIND       PRES   REMARKS
CEDAR RAPIDS   CLEAR     48  47  96 W7        30.10S
6HR MIN TEMP:  47; 6HR MAX TEMP:  54;

CHARLES CITY * CLEAR     50  50 100 NW5       30.12R
CLINTON *      CLEAR     50  49  96 W6        30.09R
DECORAH *      CLEAR     52  50  93 CALM      30.09S
DUBUQUE        CLEAR     50  47  89 SW3       30.09R
6HR MIN TEMP:  49; 6HR MAX TEMP:  56;

MONTICELLO *   CLEAR     48  48 100 CALM      30.09S
OELWEIN *      CLEAR     50  50 100 NW6       30.11S
WATERLOO       CLEAR     50  48  93 CALM      30.11R
6HR MIN TEMP:  47; 6HR MAX TEMP:  55;

$$

IAZ064-065-067-068-078-231300-
   EAST CENTRAL IOWA

CITY           SKY/WX    TMP DP  RH WIND       PRES   REMARKS
DAVENPORT      CLEAR     52  50  93 W5        30.11R
6HR MIN TEMP:  51; 6HR MAX TEMP:  56;

IOWA CITY        N/A     54  50  86 CALM      30.12R
6HR MIN TEMP:  54; 6HR MAX TEMP:  58;

MUSCATINE *    CLEAR     55  50  82 CALM      30.10S
QUAD CITIES    CLEAR     53  51  93 CALM      30.09R
6HR MIN TEMP:  52; 6HR MAX TEMP:  59;

$$

IAZ062-063-075>077-085>089-095>099-231300-
   SOUTHEAST IOWA

CITY           SKY/WX    TMP DP  RH WIND       PRES   REMARKS
BURLINGTON     CLEAR     55  53  93 NW6       30.10S
6HR MIN TEMP:  54; 6HR MAX TEMP:  58;

FAIRFIELD *    CLEAR     54  50  87 W6        30.12R
FORT MADISON * CLEAR     54  52  94 W3        30.12S
KEOKUK *       CLEAR     54  52  94 CALM      30.11S
OSKALOOSA *      N/A     51  50  98 W3        30.13R
OTTUMWA        CLEAR     53  52  96 W6        30.12S
6HR MIN TEMP:  51; 6HR MAX TEMP:  55;

WASHINGTON *   CLEAR     52  52 100 W6        30.12S
$$

ABBREVIATIONS USED IN REMARKS
   TC - TEMPERATURES IN CELSIUS
  WCI - WIND CHILL INDEX
   HX - HEAT INDEX
  VSB - VISIBILITY
$$




USA.gov is the U.S. government's official web portal to all federal, state and local government web resources and services.